Time,TemperatureF,DewpointF,PressureIn,WindDirection,WindDirectionDegrees,WindSpeedMPH,WindSpeedGustMPH,Humidity,HourlyPrecipIn,Conditions,Clouds,dailyrainin,SoftwareType,DateUTC
2013-07-06 00:02:00,67.7,63.7,29.79,ENE,57,0.0,0.0,87,0.00,,,0.00,Wunderground v.1.15,2013-07-06 06:02:00,
2013-07-06 00:12:00,67.6,63.9,29.81,SE,124,0.0,0.0,88,0.00,,,0.01,Wunderground v.1.15,2013-07-06 06:12:00,
2013-07-06 00:22:00,67.0,63.6,29.80,SE,124,0.0,0.0,89,0.04,,,0.02,Wunderground v.1.15,2013-07-06 06:22:00,
2013-07-06 00:32:00,66.9,63.9,29.81,North,354,0.0,2.0,90,0.04,,,0.02,Wunderground v.1.15,2013-07-06 06:32:00,
2013-07-06 00:42:00,66.7,63.4,29.81,North,354,1.0,1.0,89,0.04,,,0.03,Wunderground v.1.15,2013-07-06 06:42:00,
2013-07-06 00:47:00,66.5,62.8,29.81,NNW,333,1.0,1.0,88,0.07,,,0.04,Wunderground v.1.15,2013-07-06 06:47:00,
2013-07-06 00:57:00,66.4,63.4,29.81,North,360,1.0,2.0,90,0.04,,,0.04,Wunderground v.1.15,2013-07-06 06:57:00,
2013-07-06 01:02:00,66.2,63.2,29.81,NNE,26,1.0,1.0,90,0.00,,,0.04,Wunderground v.1.15,2013-07-06 07:02:00,
2013-07-06 01:12:00,66.1,63.4,29.81,North,6,0.0,0.0,91,0.00,,,0.05,Wunderground v.1.15,2013-07-06 07:12:00,
2013-07-06 01:22:00,66.0,63.3,29.82,North,6,0.0,0.0,91,0.00,,,0.05,Wunderground v.1.15,2013-07-06 07:22:00,
2013-07-06 01:27:00,65.9,63.2,29.82,North,8,0.0,0.0,91,0.00,,,0.05,Wunderground v.1.15,2013-07-06 07:27:00,
2013-07-06 01:37:00,65.8,63.4,29.83,North,8,0.0,0.0,92,0.00,,,0.06,Wunderground v.1.15,2013-07-06 07:37:00,
2013-07-06 01:47:00,65.2,62.5,29.82,ENE,60,0.0,2.0,91,0.05,,,0.07,Wunderground v.1.15,2013-07-06 07:47:00,
2013-07-06 01:52:00,64.9,61.9,29.82,NE,46,0.0,0.0,90,0.05,,,0.07,Wunderground v.1.15,2013-07-06 07:52:00,
2013-07-06 02:02:00,64.6,61.6,29.82,NE,47,0.0,0.0,90,0.06,,,0.08,Wunderground v.1.15,2013-07-06 08:02:00,
2013-07-06 02:12:00,64.3,61.6,29.81,NE,47,0.0,0.0,91,0.04,,,0.09,Wunderground v.1.15,2013-07-06 08:12:00,
2013-07-06 02:22:00,64.0,61.3,29.81,NE,48,0.0,0.0,91,0.04,,,0.09,Wunderground v.1.15,2013-07-06 08:22:00,
2013-07-06 02:32:00,64.1,61.4,29.81,NNE,27,0.0,0.0,91,0.00,,,0.09,Wunderground v.1.15,2013-07-06 08:32:00,
2013-07-06 02:37:00,64.6,61.6,29.81,NNE,19,1.0,1.0,90,0.00,,,0.09,Wunderground v.1.15,2013-07-06 08:37:00,
2013-07-06 02:47:00,64.9,61.6,29.81,NNE,28,1.0,3.0,89,0.00,,,0.10,Wunderground v.1.15,2013-07-06 08:47:00,
2013-07-06 02:57:00,64.9,61.6,29.81,NW,324,1.0,2.0,89,0.00,,,0.10,Wunderground v.1.15,2013-07-06 08:57:00,
2013-07-06 03:02:00,64.9,61.3,29.80,North,358,2.0,5.0,88,0.00,,,0.10,Wunderground v.1.15,2013-07-06 09:02:00,
2013-07-06 03:12:00,65.0,61.4,29.80,North,3,2.0,2.0,88,0.00,,,0.11,Wunderground v.1.15,2013-07-06 09:12:00,
2013-07-06 03:17:00,65.1,61.8,29.80,NNE,16,1.0,2.0,89,0.00,,,0.11,Wunderground v.1.15,2013-07-06 09:17:00,
2013-07-06 03:22:00,65.1,61.8,29.80,NNW,348,0.0,0.0,89,0.00,,,0.11,Wunderground v.1.15,2013-07-06 09:22:00,
2013-07-06 03:32:00,65.2,61.2,29.79,North,355,1.0,1.0,87,0.00,,,0.11,Wunderground v.1.15,2013-07-06 09:32:00,
2013-07-06 03:42:00,65.6,60.6,29.79,North,9,2.0,2.0,84,0.00,,,0.11,Wunderground v.1.15,2013-07-06 09:42:00,
2013-07-06 03:52:00,65.7,60.4,29.78,NNW,344,2.0,2.0,83,0.00,,,0.11,Wunderground v.1.15,2013-07-06 09:52:00,
2013-07-06 03:57:00,65.8,60.5,29.78,NNW,330,1.0,2.0,83,0.00,,,0.11,Wunderground v.1.15,2013-07-06 09:57:00,
2013-07-06 04:02:00,65.8,60.2,29.78,NE,40,1.0,1.0,82,0.00,,,0.11,Wunderground v.1.15,2013-07-06 10:02:00,
2013-07-06 04:12:00,65.5,60.2,29.77,NNW,348,0.0,1.0,83,0.00,,,0.11,Wunderground v.1.15,2013-07-06 10:12:00,
2013-07-06 04:22:00,65.6,60.0,29.77,NNW,339,1.0,1.0,82,0.00,,,0.11,Wunderground v.1.15,2013-07-06 10:22:00,
2013-07-06 04:32:00,65.9,59.9,29.76,NNW,333,2.0,6.0,81,0.00,,,0.11,Wunderground v.1.15,2013-07-06 10:32:00,
2013-07-06 04:37:00,66.1,59.7,29.75,NE,35,4.0,6.0,80,0.00,,,0.11,Wunderground v.1.15,2013-07-06 10:37:00,
2013-07-06 04:42:00,66.1,59.7,29.75,North,6,4.0,5.0,80,0.00,,,0.11,Wunderground v.1.15,2013-07-06 10:42:00,
2013-07-06 04:52:00,66.5,59.1,29.74,NNE,25,5.0,5.0,77,0.00,,,0.11,Wunderground v.1.15,2013-07-06 10:52:00,
2013-07-06 05:02:00,66.7,59.3,29.74,ENE,75,3.0,3.0,77,0.00,,,0.11,Wunderground v.1.15,2013-07-06 11:02:00,
2013-07-06 05:12:00,66.6,58.8,29.74,NNW,335,2.0,2.0,76,0.00,,,0.11,Wunderground v.1.15,2013-07-06 11:12:00,
2013-07-06 05:17:00,66.5,59.1,29.74,NNW,330,2.0,2.0,77,0.00,,,0.11,Wunderground v.1.15,2013-07-06 11:17:00,
2013-07-06 05:27:00,66.5,59.1,29.74,NW,305,1.0,2.0,77,0.00,,,0.11,Wunderground v.1.15,2013-07-06 11:27:00,
2013-07-06 05:32:00,66.5,58.7,29.75,NW,316,1.0,6.0,76,0.00,,,0.11,Wunderground v.1.15,2013-07-06 11:32:00,
2013-07-06 05:42:00,66.9,57.6,29.75,NNW,333,3.0,3.0,72,0.00,,,0.11,Wunderground v.1.15,2013-07-06 11:42:00,
2013-07-06 05:52:00,66.4,57.5,29.76,WSW,249,0.0,0.0,73,0.00,,,0.11,Wunderground v.1.15,2013-07-06 11:52:00,
2013-07-06 05:57:00,66.1,57.9,29.76,NW,309,1.0,1.0,75,0.00,,,0.11,Wunderground v.1.15,2013-07-06 11:57:00,
2013-07-06 06:02:00,65.7,58.3,29.77,WSW,252,1.0,1.0,77,0.00,,,0.11,Wunderground v.1.15,2013-07-06 12:02:00,
2013-07-06 06:12:00,65.0,58.7,29.77,WSW,249,1.0,1.0,80,0.00,,,0.11,Wunderground v.1.15,2013-07-06 12:12:00,
2013-07-06 06:22:00,64.5,58.5,29.78,SE,129,0.0,1.0,81,0.00,,,0.11,Wunderground v.1.15,2013-07-06 12:22:00,
2013-07-06 06:32:00,64.3,58.7,29.77,SE,130,0.0,0.0,82,0.00,,,0.11,Wunderground v.1.15,2013-07-06 12:32:00,
2013-07-06 06:42:00,64.1,59.2,29.77,ESE,118,0.0,1.0,84,0.00,,,0.11,Wunderground v.1.15,2013-07-06 12:42:00,
2013-07-06 06:47:00,64.3,59.0,29.78,SE,131,0.0,1.0,83,0.00,,,0.11,Wunderground v.1.15,2013-07-06 12:47:00,
2013-07-06 06:57:00,64.6,59.0,29.78,SE,127,0.0,0.0,82,0.00,,,0.11,Wunderground v.1.15,2013-07-06 12:57:00,
2013-07-06 07:02:00,64.7,59.4,29.78,SE,129,0.0,0.0,83,0.00,,,0.11,Wunderground v.1.15,2013-07-06 13:02:00,
2013-07-06 07:12:00,64.8,59.5,29.79,SSE,154,0.0,0.0,83,0.00,,,0.11,Wunderground v.1.15,2013-07-06 13:12:00,
2013-07-06 07:22:00,65.6,60.0,29.79,NNW,335,0.0,1.0,82,0.00,,,0.11,Wunderground v.1.15,2013-07-06 13:22:00,
2013-07-06 07:32:00,66.6,59.9,29.79,South,169,1.0,1.0,79,0.00,,,0.11,Wunderground v.1.15,2013-07-06 13:32:00,
2013-07-06 07:42:00,67.5,60.0,29.79,South,190,1.0,1.0,77,0.00,,,0.11,Wunderground v.1.15,2013-07-06 13:42:00,
2013-07-06 07:52:00,67.9,59.7,29.80,SSE,149,1.0,1.0,75,0.00,,,0.11,Wunderground v.1.15,2013-07-06 13:52:00,
2013-07-06 08:02:00,68.3,59.7,29.80,SSE,150,1.0,1.0,74,0.00,,,0.11,Wunderground v.1.15,2013-07-06 14:02:00,
2013-07-06 08:12:00,68.3,59.7,29.80,SE,134,1.0,2.0,74,0.00,,,0.11,Wunderground v.1.15,2013-07-06 14:12:00,
2013-07-06 08:17:00,68.5,59.9,29.80,SE,141,1.0,2.0,74,0.00,,,0.11,Wunderground v.1.15,2013-07-06 14:17:00,
2013-07-06 08:27:00,69.2,59.8,29.80,SE,143,0.0,0.0,72,0.00,,,0.11,Wunderground v.1.15,2013-07-06 14:27:00,
2013-07-06 08:37:00,69.6,59.8,29.80,SSE,152,0.0,0.0,71,0.00,,,0.11,Wunderground v.1.15,2013-07-06 14:37:00,
2013-07-06 08:42:00,69.8,59.2,29.80,NW,304,0.0,0.0,69,0.00,,,0.11,Wunderground v.1.15,2013-07-06 14:42:00,
2013-07-06 08:52:00,70.2,59.1,29.80,SSE,148,0.0,0.0,68,0.00,,,0.11,Wunderground v.1.15,2013-07-06 14:52:00,
2013-07-06 08:57:00,70.7,59.2,29.81,South,169,0.0,0.0,67,0.00,,,0.11,Wunderground v.1.15,2013-07-06 14:57:00,
2013-07-06 09:02:00,71.0,59.5,29.81,SSW,211,0.0,1.0,67,0.00,,,0.11,Wunderground v.1.15,2013-07-06 15:02:00,
2013-07-06 09:12:00,71.5,58.2,29.81,ESE,118,1.0,3.0,63,0.00,,,0.11,Wunderground v.1.15,2013-07-06 15:12:00,
2013-07-06 09:17:00,71.9,59.1,29.81,West,260,2.0,3.0,64,0.00,,,0.11,Wunderground v.1.15,2013-07-06 15:17:00,
2013-07-06 09:27:00,72.5,58.3,29.81,SSW,195,1.0,1.0,61,0.00,,,0.11,Wunderground v.1.15,2013-07-06 15:27:00,
2013-07-06 09:37:00,72.5,58.7,29.81,NW,315,1.0,2.0,62,0.00,,,0.11,Wunderground v.1.15,2013-07-06 15:37:00,
2013-07-06 09:47:00,73.1,58.8,29.81,SW,224,0.0,1.0,61,0.00,,,0.11,Wunderground v.1.15,2013-07-06 15:47:00,
2013-07-06 09:52:00,73.2,58.0,29.81,NNE,23,0.0,2.0,59,0.00,,,0.11,Wunderground v.1.15,2013-07-06 15:52:00,
2013-07-06 09:57:00,73.2,58.9,29.81,NNE,20,0.0,2.0,61,0.00,,,0.11,Wunderground v.1.15,2013-07-06 15:57:00,
2013-07-06 10:02:00,73.7,58.9,29.81,SSW,203,0.0,0.0,60,0.00,,,0.11,Wunderground v.1.15,2013-07-06 16:02:00,
2013-07-06 10:12:00,74.0,58.8,29.81,NW,316,1.0,1.0,59,0.00,,,0.11,Wunderground v.1.15,2013-07-06 16:12:00,
2013-07-06 10:17:00,73.8,59.0,29.81,NW,321,1.0,1.0,60,0.00,,,0.11,Wunderground v.1.15,2013-07-06 16:17:00,
2013-07-06 10:32:00,74.9,58.6,29.81,NW,315,1.0,1.0,57,0.00,,,0.11,Wunderground v.1.15,2013-07-06 16:32:00,
2013-07-06 10:37:00,74.9,57.6,29.81,NNW,345,1.0,1.0,55,0.00,,,0.11,Wunderground v.1.15,2013-07-06 16:37:00,
2013-07-06 10:47:00,75.5,58.7,29.81,NNW,347,2.0,3.0,56,0.00,,,0.11,Wunderground v.1.15,2013-07-06 16:47:00,
2013-07-06 10:57:00,75.3,58.5,29.80,North,358,2.0,3.0,56,0.00,,,0.11,Wunderground v.1.15,2013-07-06 16:57:00,
2013-07-06 11:02:00,75.4,58.6,29.80,ENE,69,2.0,2.0,56,0.00,,,0.11,Wunderground v.1.15,2013-07-06 17:02:00,
2013-07-06 11:12:00,76.0,58.7,29.80,NNW,339,2.0,3.0,55,0.00,,,0.11,Wunderground v.1.15,2013-07-06 17:12:00,
2013-07-06 11:27:00,76.4,58.0,29.80,NNW,335,4.0,5.0,53,0.00,,,0.11,Wunderground v.1.15,2013-07-06 17:27:00,
2013-07-06 11:32:00,76.6,57.1,29.80,NNW,343,4.0,4.0,51,0.00,,,0.11,Wunderground v.1.15,2013-07-06 17:32:00,
2013-07-06 11:42:00,76.9,57.4,29.80,NNW,329,3.0,3.0,51,0.00,,,0.11,Wunderground v.1.15,2013-07-06 17:42:00,
2013-07-06 11:52:00,77.4,56.7,29.79,NNW,347,2.0,2.0,49,0.00,,,0.11,Wunderground v.1.15,2013-07-06 17:52:00,
2013-07-06 12:02:00,78.4,55.3,29.80,NNW,328,2.0,2.0,45,0.00,,,0.11,Wunderground v.1.15,2013-07-06 18:02:00,
2013-07-06 12:12:00,80.0,56.1,29.80,WSW,255,2.0,2.0,44,0.00,,,0.11,Wunderground v.1.15,2013-07-06 18:12:00,
2013-07-06 12:22:00,81.3,54.7,29.79,WSW,246,2.0,3.0,40,0.00,,,0.11,Wunderground v.1.15,2013-07-06 18:22:00,
2013-07-06 12:27:00,82.1,54.0,29.79,SW,235,1.0,3.0,38,0.00,,,0.11,Wunderground v.1.15,2013-07-06 18:27:00,
2013-07-06 12:42:00,82.1,53.2,29.78,NNW,328,4.0,4.0,37,0.00,,,0.11,Wunderground v.1.15,2013-07-06 18:42:00,
2013-07-06 12:52:00,82.6,52.2,29.78,NW,308,3.0,3.0,35,0.00,,,0.11,Wunderground v.1.15,2013-07-06 18:52:00,
2013-07-06 12:57:00,82.6,52.9,29.77,NW,319,4.0,4.0,36,0.00,,,0.11,Wunderground v.1.15,2013-07-06 18:57:00,
2013-07-06 13:07:00,83.4,52.9,29.78,West,280,3.0,4.0,35,0.00,,,0.11,Wunderground v.1.15,2013-07-06 19:07:00,
2013-07-06 13:12:00,83.8,54.7,29.77,NW,319,3.0,3.0,37,0.00,,,0.11,Wunderground v.1.15,2013-07-06 19:12:00,
2013-07-06 13:17:00,84.1,54.3,29.77,North,9,3.0,3.0,36,0.00,,,0.11,Wunderground v.1.15,2013-07-06 19:17:00,
2013-07-06 13:32:00,83.9,53.3,29.76,NNW,348,4.0,4.0,35,0.00,,,0.11,Wunderground v.1.15,2013-07-06 19:32:00,
2013-07-06 13:37:00,84.0,54.2,29.76,WSW,249,4.0,6.0,36,0.00,,,0.11,Wunderground v.1.15,2013-07-06 19:37:00,
2013-07-06 13:47:00,84.9,53.4,29.76,NW,316,4.0,4.0,34,0.00,,,0.11,Wunderground v.1.15,2013-07-06 19:47:00,
2013-07-06 14:07:00,85.4,52.2,29.75,NW,325,3.0,5.0,32,0.00,,,0.11,Wunderground v.1.15,2013-07-06 20:07:00,
2013-07-06 14:17:00,86.2,50.2,29.74,NNW,348,4.0,6.0,29,0.00,,,0.11,Wunderground v.1.15,2013-07-06 20:17:00,
2013-07-06 14:27:00,86.3,49.4,29.74,NW,309,5.0,11.0,28,0.00,,,0.11,Wunderground v.1.15,2013-07-06 20:27:00,
2013-07-06 14:37:00,86.8,48.8,29.73,NNE,26,4.0,6.0,27,0.00,,,0.11,Wunderground v.1.15,2013-07-06 20:37:00,
2013-07-06 14:47:00,87.4,48.3,29.73,North,351,4.0,4.0,26,0.00,,,0.11,Wunderground v.1.15,2013-07-06 20:47:00,
2013-07-06 14:57:00,88.4,49.2,29.72,NW,309,2.0,5.0,26,0.00,,,0.11,Wunderground v.1.15,2013-07-06 20:57:00,
2013-07-06 15:17:00,88.4,48.1,29.72,NNE,33,4.0,8.0,25,0.00,,,0.11,Wunderground v.1.15,2013-07-06 21:17:00,
2013-07-06 15:27:00,89.4,48.9,29.71,North,355,2.0,2.0,25,0.00,,,0.11,Wunderground v.1.15,2013-07-06 21:27:00,
2013-07-06 15:32:00,89.0,47.5,29.71,West,267,3.0,3.0,24,0.00,,,0.11,Wunderground v.1.15,2013-07-06 21:32:00,
2013-07-06 15:47:00,90.4,48.7,29.70,SE,128,1.0,2.0,24,0.00,,,0.11,Wunderground v.1.15,2013-07-06 21:47:00,
2013-07-06 15:52:00,91.0,50.3,29.69,SW,224,1.0,1.0,25,0.00,,,0.11,Wunderground v.1.15,2013-07-06 21:52:00,
2013-07-06 16:17:00,91.1,47.0,29.69,NW,316,1.0,3.0,22,0.00,,,0.11,Wunderground v.1.15,2013-07-06 22:17:00,
2013-07-06 16:27:00,91.5,48.5,29.68,SSW,195,2.0,3.0,23,0.00,,,0.11,Wunderground v.1.15,2013-07-06 22:27:00,
2013-07-06 16:42:00,91.9,48.8,29.68,South,190,2.0,2.0,23,0.00,,,0.11,Wunderground v.1.15,2013-07-06 22:42:00,
2013-07-06 16:47:00,92.1,46.6,29.68,South,186,2.0,2.0,21,0.00,,,0.11,Wunderground v.1.15,2013-07-06 22:47:00,
2013-07-06 17:02:00,92.6,47.0,29.68,North,8,2.0,2.0,21,0.00,,,0.11,Wunderground v.1.15,2013-07-06 23:02:00,
2013-07-06 17:27:00,92.3,45.4,29.67,SW,231,3.0,4.0,20,0.00,,,0.11,Wunderground v.1.15,2013-07-06 23:27:00,
2013-07-06 17:42:00,91.5,46.1,29.67,NE,48,3.0,3.0,21,0.00,,,0.11,Wunderground v.1.15,2013-07-06 23:42:00,
2013-07-06 17:52:00,92.1,45.3,29.67,NNE,26,3.0,4.0,20,0.00,,,0.11,Wunderground v.1.15,2013-07-06 23:52:00,
2013-07-06 18:02:00,91.6,46.1,29.67,North,1,2.0,2.0,21,0.00,,,0.11,Wunderground v.1.15,2013-07-07 00:02:00,
2013-07-06 18:27:00,91.5,47.3,29.67,NE,41,1.0,2.0,22,0.00,,,0.11,Wunderground v.1.15,2013-07-07 00:27:00,
2013-07-06 18:32:00,91.5,46.1,29.67,NNW,342,0.0,0.0,21,0.00,,,0.11,Wunderground v.1.15,2013-07-07 00:32:00,
2013-07-06 18:37:00,90.9,45.6,29.67,SE,136,2.0,3.0,21,0.00,,,0.11,Wunderground v.1.15,2013-07-07 00:37:00,
2013-07-06 19:02:00,86.8,49.8,29.69,SE,135,6.0,8.0,28,0.00,,,0.11,Wunderground v.1.15,2013-07-07 01:02:00,
2013-07-06 19:12:00,86.1,49.2,29.69,SE,127,6.0,6.0,28,0.00,,,0.11,Wunderground v.1.15,2013-07-07 01:12:00,
2013-07-06 19:17:00,85.9,49.0,29.69,ENE,60,5.0,6.0,28,0.00,,,0.11,Wunderground v.1.15,2013-07-07 01:17:00,
2013-07-06 19:27:00,85.3,49.4,29.69,East,79,5.0,5.0,29,0.00,,,0.11,Wunderground v.1.15,2013-07-07 01:27:00,
2013-07-06 19:37:00,85.1,49.3,29.69,East,101,3.0,4.0,29,0.00,,,0.11,Wunderground v.1.15,2013-07-07 01:37:00,
2013-07-06 19:47:00,84.9,48.2,29.70,East,85,2.0,3.0,28,0.00,,,0.11,Wunderground v.1.15,2013-07-07 01:47:00,
2013-07-06 20:02:00,84.2,48.5,29.69,SE,139,2.0,3.0,29,0.00,,,0.11,Wunderground v.1.15,2013-07-07 02:02:00,
2013-07-06 20:12:00,83.9,48.2,29.69,East,93,2.0,2.0,29,0.00,,,0.11,Wunderground v.1.15,2013-07-07 02:12:00,
2013-07-06 20:22:00,83.4,48.7,29.69,North,5,0.0,0.0,30,0.00,,,0.11,Wunderground v.1.15,2013-07-07 02:22:00,
2013-07-06 20:37:00,82.6,49.7,29.71,NNE,26,1.0,2.0,32,0.00,,,0.11,Wunderground v.1.15,2013-07-07 02:37:00,
2013-07-06 20:47:00,82.1,50.9,29.73,NW,314,0.0,2.0,34,0.00,,,0.11,Wunderground v.1.15,2013-07-07 02:47:00,
2013-07-06 20:52:00,82.1,50.1,29.74,NW,322,2.0,6.0,33,0.00,,,0.11,Wunderground v.1.15,2013-07-07 02:52:00,
2013-07-06 21:02:00,82.3,49.5,29.75,NW,315,5.0,7.0,32,0.00,,,0.11,Wunderground v.1.15,2013-07-07 03:02:00,
2013-07-06 21:22:00,80.8,51.4,29.77,WNW,283,5.0,5.0,36,0.00,,,0.11,Wunderground v.1.15,2013-07-07 03:22:00,
2013-07-06 21:27:00,80.4,51.7,29.78,NW,304,5.0,5.0,37,0.00,,,0.11,Wunderground v.1.15,2013-07-07 03:27:00,
2013-07-06 21:37:00,79.5,52.4,29.78,NW,315,6.0,12.0,39,0.00,,,0.11,Wunderground v.1.15,2013-07-07 03:37:00,
2013-07-06 21:52:00,79.1,52.7,29.80,NE,34,6.0,11.0,40,0.00,,,0.11,Wunderground v.1.15,2013-07-07 03:52:00,
2013-07-06 22:02:00,78.9,52.5,29.80,WNW,300,6.0,7.0,40,0.00,,,0.11,Wunderground v.1.15,2013-07-07 04:02:00,
2013-07-06 22:07:00,78.5,52.8,29.80,North,352,8.0,9.0,41,0.00,,,0.11,Wunderground v.1.15,2013-07-07 04:07:00,
2013-07-06 22:12:00,77.8,53.5,29.81,NW,316,8.0,14.0,43,0.00,,,0.11,Wunderground v.1.15,2013-07-07 04:12:00,
2013-07-06 22:22:00,76.3,54.0,29.82,NW,319,10.0,11.0,46,0.00,,,0.11,Wunderground v.1.15,2013-07-07 04:22:00,
2013-07-06 22:27:00,75.8,54.1,29.82,North,354,10.0,15.0,47,0.00,,,0.11,Wunderground v.1.15,2013-07-07 04:27:00,
2013-07-06 22:37:00,75.4,54.9,29.83,NNE,21,11.0,11.0,49,0.00,,,0.11,Wunderground v.1.15,2013-07-07 04:37:00,
2013-07-06 22:42:00,75.2,54.7,29.83,NNW,335,10.0,10.0,49,0.00,,,0.11,Wunderground v.1.15,2013-07-07 04:42:00,
2013-07-06 22:52:00,75.0,54.5,29.84,NW,310,7.0,7.0,49,0.00,,,0.11,Wunderground v.1.15,2013-07-07 04:52:00,
2013-07-06 23:02:00,74.6,55.3,29.84,NW,322,6.0,8.0,51,0.00,,,0.11,Wunderground v.1.15,2013-07-07 05:02:00,
2013-07-06 23:12:00,73.8,55.1,29.84,NNW,338,7.0,7.0,52,0.00,,,0.11,Wunderground v.1.15,2013-07-07 05:12:00,
2013-07-06 23:17:00,73.6,55.4,29.85,North,353,7.0,7.0,53,0.00,,,0.11,Wunderground v.1.15,2013-07-07 05:17:00,
2013-07-06 23:22:00,73.4,55.2,29.85,NW,304,5.0,7.0,53,0.00,,,0.11,Wunderground v.1.15,2013-07-07 05:22:00,
2013-07-06 23:32:00,72.6,56.0,29.86,NW,326,7.0,7.0,56,0.00,,,0.11,Wunderground v.1.15,2013-07-07 05:32:00,
2013-07-06 23:42:00,71.1,57.0,29.86,NNW,330,6.0,6.0,61,0.00,,,0.11,Wunderground v.1.15,2013-07-07 05:42:00,
2013-07-06 23:47:00,70.3,57.5,29.86,NNE,20,6.0,6.0,64,0.00,,,0.11,Wunderground v.1.15,2013-07-07 05:47:00,
2013-07-06 23:57:00,69.4,58.0,29.86,NNW,338,3.0,5.0,67,0.00,,,0.11,Wunderground v.1.15,2013-07-07 05:57:00,